CFG5LL EDDF-LEPA

Flight info

Callsign CFG5LL
Flight time N/A
Altitude 35000
Route ANEKI2L/18 ANEKI Y163 HERBI Y164 MOPAN DCT LUTIX DCT BENOT DCT NEMOS DCT GEVEA DCT INCUS DCT BALSI DCT RETNO DCT TUPOX DCT MTG DCT DIVKO DCT VATIR/N0444F370 DCT PIVUS N852 VERSO L129 LUNIK
Aircraft A321/M-SDE3FGHIRWY/LB1

Departure

Time 2026-04-18 10:37
Airport Frankfurt Main Airport (EDDF)

Arrival

Time N/A
Airport Palma de Mallorca Airport (LEPA)
Time Latitude Longitude Altitude Speed Heading
2026-04-18 10:03 50.04850 8.56952 356 ft 0 kts 295°
2026-04-18 10:23 50.04850 8.56953 356 ft 2 kts 295°
2026-04-18 10:23 50.04840 8.56989 361 ft 4 kts 294°
2026-04-18 10:24 50.04830 8.57025 364 ft 4 kts 276°
2026-04-18 10:24 50.04834 8.57059 363 ft 4 kts 220°
2026-04-18 10:24 50.04846 8.57071 364 ft 0 kts 204°
2026-04-18 10:24 50.04827 8.57059 362 ft 4 kts 205°
2026-04-18 10:25 50.04803 8.57042 359 ft 4 kts 205°
2026-04-18 10:25 50.04796 8.57036 359 ft 0 kts 205°
2026-04-18 10:28 50.04784 8.57028 356 ft 4 kts 205°
2026-04-18 10:28 50.04749 8.57002 357 ft 7 kts 205°
2026-04-18 10:28 50.04695 8.56963 361 ft 9 kts 204°
2026-04-18 10:28 50.04628 8.56921 360 ft 15 kts 197°
2026-04-18 10:29 50.04524 8.56882 359 ft 14 kts 192°
2026-04-18 10:29 50.04448 8.56806 363 ft 15 kts 242°
2026-04-18 10:29 50.04400 8.56612 361 ft 22 kts 250°
2026-04-18 10:29 50.04347 8.56392 359 ft 22 kts 250°
2026-04-18 10:30 50.04297 8.56176 362 ft 21 kts 250°
2026-04-18 10:30 50.04245 8.55968 359 ft 21 kts 249°
2026-04-18 10:30 50.04195 8.55760 360 ft 20 kts 249°
2026-04-18 10:30 50.04146 8.55556 359 ft 20 kts 249°
2026-04-18 10:31 50.04100 8.55359 355 ft 19 kts 249°
2026-04-18 10:31 50.04057 8.55180 355 ft 17 kts 250°
2026-04-18 10:31 50.04016 8.55010 356 ft 18 kts 249°
2026-04-18 10:31 50.03965 8.54800 361 ft 22 kts 249°
2026-04-18 10:32 50.03911 8.54571 351 ft 23 kts 250°
2026-04-18 10:32 50.03849 8.54345 353 ft 23 kts 237°
2026-04-18 10:32 50.03777 8.54132 351 ft 22 kts 248°
2026-04-18 10:32 50.03725 8.53912 349 ft 22 kts 249°
2026-04-18 10:33 50.03674 8.53696 345 ft 21 kts 249°
2026-04-18 10:33 50.03619 8.53482 337 ft 21 kts 249°
2026-04-18 10:33 50.03569 8.53270 337 ft 21 kts 250°
2026-04-18 10:33 50.03520 8.53064 335 ft 20 kts 250°
2026-04-18 10:34 50.03469 8.52858 333 ft 20 kts 246°
2026-04-18 10:34 50.03434 8.52728 331 ft 0 kts 248°
2026-04-18 10:34 50.03434 8.52727 331 ft 0 kts 248°
2026-04-18 10:35 50.03423 8.52687 333 ft 9 kts 248°
2026-04-18 10:35 50.03394 8.52608 332 ft 8 kts 218°
2026-04-18 10:35 50.03350 8.52594 335 ft 0 kts 179°
2026-04-18 10:36 50.03349 8.52594 335 ft 2 kts 179°
2026-04-18 10:36 50.03169 8.52597 335 ft 62 kts 179°
2026-04-18 10:37 50.02517 8.52603 335 ft 123 kts 180°
2026-04-18 10:37 50.01500 8.52613 331 ft 168 kts 179°
2026-04-18 10:37 50.00234 8.52638 641 ft 182 kts 178°
2026-04-18 10:37 49.98970 8.52707 1281 ft 181 kts 178°
2026-04-18 10:38 49.97699 8.52797 1739 ft 188 kts 178°
2026-04-18 10:38 49.96328 8.52897 1890 ft 207 kts 178°
2026-04-18 10:38 49.94839 8.53003 2072 ft 220 kts 178°
2026-04-18 10:38 49.93296 8.53110 2415 ft 224 kts 178°
2026-04-18 10:39 49.91706 8.53219 2955 ft 230 kts 178°